Torna al catalogo

SL-8 DEB

AttivoLEO
NORAD 21253·DEBRIS·🇷🇺 Russia

Lanciato Feb 12, 1991 da Plesetsk Cosmodrome

Loading…

Prossimi Passaggi (prossime 24 ore)

TLE

AggiornatoSource: Space-Track

Epoca: Sep 14, 2026, 12:48 UTC

1 21253U 91009BL  26257.53390432  .00000002  00000-0  16914-3 0  9999
2 21253  74.1149 316.4268 0148211 260.6646 165.1380 12.14613657575162

Traccia SL-8 DEB in tempo reale con AllMySat

Download on the App Store